Flag for Netherlands Weather past 2 weeks in Enschede, Netherlands

Now
77 °F

Warm.


Feels Like: 79 °F
Forecast: 60 / 75 °F
Wind: 9 mph from Southeast

Location: Deelen

Current Time: Sep 18, 2014 at 4:07:32 PM

Latest Report: Sep 18, 2014 at 3:25 PM


Visibility: N/A

Pressure: 29.83 "Hg

Humidity: 54%

Dew point: 59 °F

Location of EnschedeLocation

Historic Weather in Enschede — Graph

°F

Enschede temperature yesterday

Maximum temperature yesterday: 77 °F (at 2:55 PM)
Minimum temperature yesterday: 59 °F (at 3:25 AM)
Average temperature yesterday: 66 °F

Past Weeks' High & Low Weather Summary

 TemperatureHumidityPressure
High77 °F (Sep 17, 2:55 PM)100% (Sep 5, 2:25 AM)30.27 "Hg (Sep 5, 2:25 AM)
Low45 °F (Sep 12, 6:25 AM)43% (Sep 8, 4:55 PM)29.83 "Hg (Sep 18, 5:25 AM)
Average62 °F83%30.05 "Hg
* Reported Sep 3 2:25 PM — Sep 18 2:55 PM, Enschede, Weather by CustomWeather, © 2014

Note: Actual official high and low records may vary slightly from our data, if they occured in-between our weather recording intervals... More about our weather records

Advertising

Enschede weather history for previous 24 hours

 ConditionsComfort  
Time TempWeatherWind HumidityBarometerVisibility
2:55 PM
Sep 18
77 °FPassing clouds.9 mph61%29.83 "HgN/A
2:25 PM77 °FPassing clouds.12 mph57%29.83 "HgN/A
1:55 PM75 °FPassing clouds.10 mph61%29.83 "HgN/A
1:25 PM77 °FWarm.12 mph57%29.83 "HgN/A
12:55 PM75 °FMostly cloudy.12 mph61%29.83 "HgN/A
12:25 PM73 °FPassing clouds.9 mph61%29.83 "HgN/A
11:55 AM73 °FPassing clouds.8 mph65%29.83 "HgN/A
11:25 AM72 °FPassing clouds.6 mph69%29.83 "HgN/A
10:55 AM70 °FPassing clouds.5 mph69%29.83 "HgN/A
10:25 AM68 °FPassing clouds.8 mph73%29.86 "HgN/A
9:55 AM66 °FMild.5 mph83%29.83 "HgN/A
9:25 AM64 °FFog.5 mph83%29.83 "Hg6 mi
8:55 AM63 °FFog.2 mph83%29.86 "Hg3 mi
8:25 AM59 °FFog.5 mph94%29.86 "Hg2 mi
7:55 AM59 °FFog.5 mph94%29.83 "Hg2 mi
7:25 AM57 °FFog.5 mph100%29.83 "Hg2 mi
6:55 AM59 °FFog.6 mph94%29.83 "Hg3 mi
6:25 AM59 °FFog.3 mph88%29.83 "Hg3 mi
5:55 AM59 °FFog.5 mph94%29.83 "Hg2 mi
5:25 AM59 °FFog.3 mph94%29.83 "Hg2 mi
4:55 AM59 °FFog.3 mph94%29.86 "Hg3 mi
4:25 AM59 °FFog.3 mph94%29.86 "Hg3 mi
3:55 AM59 °FFog.3 mph94%29.86 "Hg3 mi
3:25 AM59 °FFog.3 mph94%29.86 "Hg4 mi
2:55 AM61 °FFog.3 mph88%29.86 "Hg4 mi
2:25 AM61 °FFog.3 mph88%29.86 "Hg4 mi
1:55 AM61 °FFog.2 mph88%29.86 "Hg6 mi
1:25 AM61 °FCool.2 mph88%29.86 "HgN/A
12:55 AM61 °FCool.2 mph88%29.86 "HgN/A
12:25 AM61 °FPassing clouds.6 mph88%29.86 "HgN/A
11:55 PM
Sep 17
63 °FPassing clouds.6 mph88%29.86 "HgN/A
11:25 PM63 °FPassing clouds.7 mph88%29.86 "HgN/A
10:55 PM63 °FMild.7 mph88%29.86 "HgN/A
10:25 PM64 °FMild.7 mph83%29.86 "HgN/A
9:55 PM63 °FMild.8 mph88%29.86 "HgN/A
9:25 PM63 °FMild.7 mph88%29.86 "HgN/A
8:55 PM63 °FPassing clouds.5 mph88%29.86 "HgN/A
8:25 PM64 °FPassing clouds.5 mph83%29.86 "HgN/A
7:55 PM66 °FPassing clouds.5 mph83%29.86 "HgN/A
7:25 PM70 °FPassing clouds.5 mph78%29.86 "HgN/A
6:55 PM73 °FMild.5 mph65%29.86 "HgN/A
6:25 PM73 °FMild.7 mph65%29.86 "HgN/A
5:55 PM75 °FPassing clouds.8 mph57%29.86 "HgN/A
5:25 PM75 °FPassing clouds.7 mph57%29.86 "HgN/A
4:55 PM75 °FPassing clouds.7 mph57%29.86 "HgN/A
4:25 PM75 °FMild.7 mph57%29.86 "HgN/A
Weather by CustomWeather, © 2014

See weather overviewHow to use our weather pages